Tucumcari, NM

2:10 PM MST on February 20, 2017 (GMT -0700)
Tucumcari Municipal

Weather History for KTCC - April, 2013

Change the Weather History Date:

Tuesday, April 23, 2013

  Actual Average Record
Temperature  
Mean Temperature 36 °F -  
Max Temperature 43 °F 74 °F 94 °F (1950)
Min Temperature 30 °F 44 °F 30 °F (2013)
Degree Days  
Heating Degree Days 29    
Moisture  
Dew Point 20 °F    
Average Humidity 51    
Maximum Humidity 61    
Minimum Humidity 40    
Precipitation  
Precipitation 0.00 in - - ()
Sea Level Pressure  
Sea Level Pressure 30.13 in    
Wind  
Wind Speed 20 mph (NE)    
Max Wind Speed 30 mph    
Max Gust Speed 34 mph    
Visibility 10 miles    
Events      
Averages and records for this station are not official NWS values.
T = Trace of Precipitation, MM = Missing Value Source: NWS Daily Summary

Daily Weather History Graph

Daily Weather History Graph

Search for Another Location

Airport or City:

Trip Planner

Search our weather history database for the weather conditions in past years. The results will help you decide how hot, cold, wet, or windy it might be!

Date:

Astronomy

Apr. 23, 2013 Rise Set
Actual Time 6:11 AM MDT 7:33 PM MDT
Civil Twilight 5:45 AM MDT 8:00 PM MDT
Nautical Twilight 5:13 AM MDT 8:32 PM MDT
Astronomical Twilight 4:40 AM MDT 9:05 PM MDT
Moon 5:35 PM MDT (4/23) 4:36 AM MDT (4/23)
Length of Visible Light 14h 15m
Length of Day
13h 21m
Waxing Gibbous, 94% of the Moon is Illuminated
Apr 23
Waxing Gibbous
Apr 25
Full
May 2
Last Quarter
May 9
New
May 17
First Quarter

Hourly Weather History & Observations

Time (MDT) Temp. Windchill Dew Point Humidity Pressure Visibility Wind Dir Wind Speed Gust Speed Precip Events Conditions
12:53 AM 41.0 °F 29.8 °F 26.1 °F 55% 29.95 in 10.0 mi NE 29.9 mph 34.5 mph N/A   Overcast
1:53 AM 37.9 °F 27.9 °F 24.1 °F 57% 29.98 in 10.0 mi NE 19.6 mph 32.2 mph N/A   Overcast
2:53 AM 36.0 °F 24.2 °F 21.9 °F 57% 29.99 in 10.0 mi NE 24.2 mph 28.8 mph N/A   Overcast
4:53 AM 34.0 °F 23.0 °F 21.0 °F 59% 30.01 in 10.0 mi NE 18.4 mph 31.1 mph N/A   Overcast
5:37 AM 33.8 °F 22.5 °F 19.4 °F 56% 30.13 in 10.0 mi NE 19.6 mph - N/A   Overcast
5:53 AM 33.1 °F 20.9 °F 21.0 °F 61% 30.02 in 10.0 mi NE 21.9 mph - N/A   Overcast
6:28 AM 33.8 °F 22.5 °F 19.4 °F 56% 30.15 in 10.0 mi NE 19.6 mph - N/A   Overcast
6:53 AM 33.1 °F 21.2 °F 19.9 °F 59% 30.05 in 10.0 mi NE 20.7 mph - N/A   Overcast
7:02 AM 33.8 °F 22.2 °F 19.4 °F 56% 30.15 in 10.0 mi NE 20.7 mph - N/A   Overcast
7:53 AM 34.0 °F 23.0 °F 18.0 °F 52% 30.11 in 10.0 mi NE 18.4 mph - N/A   Overcast
8:53 AM 35.1 °F 24.1 °F 18.0 °F 50% 30.15 in 10.0 mi NE 19.6 mph - N/A   Overcast
9:53 AM 37.0 °F 26.2 °F 19.0 °F 48% 30.16 in 10.0 mi NE 21.9 mph 29.9 mph N/A   Overcast
10:53 AM 37.0 °F 26.4 °F 19.0 °F 48% 30.17 in 10.0 mi NE 20.7 mph 27.6 mph N/A   Overcast
11:53 AM 39.0 °F 29.6 °F 19.0 °F 45% 30.16 in 10.0 mi NE 18.4 mph 25.3 mph N/A   Overcast
12:53 PM 41.0 °F 32.8 °F 19.9 °F 43% 30.14 in 10.0 mi NE 16.1 mph 23.0 mph N/A   Overcast
1:53 PM 42.1 °F 33.3 °F 19.9 °F 41% 30.12 in 10.0 mi NE 19.6 mph 26.5 mph N/A   Overcast
2:53 PM 42.1 °F 33.9 °F 19.9 °F 41% 30.12 in 10.0 mi NE 17.3 mph 27.6 mph N/A   Overcast
3:53 PM 42.1 °F 34.2 °F 19.0 °F 40% 30.10 in 10.0 mi ENE 16.1 mph 25.3 mph N/A   Overcast
4:53 PM 39.9 °F 31.4 °F 19.0 °F 43% 30.12 in 10.0 mi NE 16.1 mph 25.3 mph N/A   Overcast
5:53 PM 39.9 °F 32.5 °F 19.0 °F 43% 30.17 in 10.0 mi ENE 12.7 mph - N/A   Overcast
6:53 PM 39.0 °F 30.3 °F 19.0 °F 45% 30.14 in 10.0 mi ENE 16.1 mph - N/A   Scattered Clouds
7:53 PM 37.0 °F 27.7 °F 18.0 °F 46% 30.22 in 10.0 mi NE 16.1 mph - N/A   Mostly Cloudy
8:53 PM 36.0 °F 27.1 °F 19.0 °F 50% 30.28 in 10.0 mi NE 13.8 mph - N/A   Overcast
9:53 PM 34.0 °F 27.2 °F 18.0 °F 52% 30.30 in 10.0 mi ENE 8.1 mph - N/A   Scattered Clouds
10:53 PM 30.0 °F 25.2 °F 16.0 °F 56% 30.30 in 10.0 mi SE 4.6 mph - N/A   Clear
11:53 PM 30.0 °F 26.5 °F 16.0 °F 56% 30.28 in 10.0 mi East 3.5 mph - N/A   Clear